Voltar ao catálogo

COSMOS 2251 DEB

AtivoLEO
NORAD 36385·DEBRIS·🇷🇺 Russia

Lançado Jun 16, 1993 de Plesetsk Cosmodrome

Loading…

Próximas Passagens (próximas 24 horas)

TLE

AtualizadoSource: Space-Track

Época: Sep 14, 2026, 12:45 UTC

1 36385U 93036AZN 26257.53153694  .00005680  00000-0  68999-3 0  9997
2 36385  73.9692 332.6128 0127992  79.7359 281.8218 14.78011814891708

Acompanhe COSMOS 2251 DEB em tempo real com AllMySat

Download on the App Store